User: anonymous   Login
Location: Tyler Bend Campground
(35.9875°N, 92.7606°W)
Time: 05:13:57
(UTC-06:00)
Language:

Iridium 39 - Orbit

View from above orbital plane
View from above orbital plane
View from above satellite
View from above satellite

Ground track
Ground track

The orbit data is extracted from the following two-line orbital elements,

1 25042U 97069D   15062.26856024  .00000696  00000-0  24130-3 0  9995
2 25042 086.4010 011.9819 0002322 087.5941 272.5521 14.34218127906356
Epoch (UTC): 03 March 2015 06:26:43
Eccentricity: 0.0002322
inclination: 86.4010°
perigee height: 776 km
apogee height: 779 km
right ascension of ascending node: 11.9819°
argument of perigee: 87.5941°
revolutions per day: 14.34218127
mean anomaly at epoch: 272.5521°
orbit number at epoch: 90635

The dashed part of the orbit path shows where the satellite is in the earth's shadow,  

DLR